Fort Morgan, CO

6:02 AM MDT on June 23, 2017 (GMT -0600)
Fort Morgan

Weather History for KFMM - April, 2013

Change the Weather History Date:

Friday, April 26, 2013

  Actual Average (KAKO) Record (KAKO)
Temperature  
Mean Temperature 56 °F -  
Max Temperature 71 °F 62 °F 86 °F (1955)
Min Temperature 40 °F 36 °F 21 °F (1950)
Degree Days  
Heating Degree Days 10    
Growing Degree Days 6 (Base 50)    
Moisture  
Dew Point 20 °F    
Average Humidity 28    
Maximum Humidity 63    
Minimum Humidity 12    
Precipitation  
Precipitation 0.00 in - - ()
Sea Level Pressure  
Sea Level Pressure 30.13 in    
Wind  
Wind Speed 9 mph (NNE)    
Max Wind Speed 20 mph    
Max Gust Speed 25 mph    
Visibility 10 miles    
Events      
Averages and records for this station are not official NWS values.
T = Trace of Precipitation, MM = Missing Value Source: NWS Daily Summary

Daily Weather History Graph

Daily Weather History Graph

Search for Another Location

Airport or City:

Trip Planner

Search our weather history database for the weather conditions in past years. The results will help you decide how hot, cold, wet, or windy it might be!

Date:

Astronomy

Apr. 26, 2013 Rise Set
Actual Time 6:00 AM MDT 7:45 PM MDT
Civil Twilight 5:31 AM MDT 8:14 PM MDT
Nautical Twilight 4:56 AM MDT 8:50 PM MDT
Astronomical Twilight 4:18 AM MDT 9:28 PM MDT
Moon 9:11 PM MDT (4/26) 6:30 AM MDT (4/26)
Length of Visible Light 14h 43m
Length of Day
13h 45m
Full, 99% of the Moon is Illuminated
Apr 26
Full
May 2
Last Quarter
May 9
New
May 17
First Quarter
May 24
Full

Hourly Weather History & Observations

Time (MDT) Temp. Windchill Dew Point Humidity Pressure Visibility Wind Dir Wind Speed Gust Speed Precip Events Conditions
12:15 AM 50.5 °F - 18.1 °F 28% 29.99 in 10.0 mi Calm Calm - N/A   Mostly Cloudy
12:35 AM 50.9 °F - 18.1 °F 27% 29.99 in 10.0 mi Calm Calm - N/A   Scattered Clouds
1:15 AM 43.2 °F 39.0 °F 26.1 °F 51% 30.00 in 10.0 mi WSW 6.9 mph - N/A   Clear
1:35 AM 43.2 °F 39.7 °F 24.8 °F 48% 29.99 in 10.0 mi West 5.8 mph - N/A   Clear
1:55 AM 40.5 °F 33.6 °F 27.0 °F 59% 30.00 in 10.0 mi West 11.5 mph - N/A   Mostly Cloudy
2:15 AM 41.7 °F 35.2 °F 28.4 °F 59% 30.00 in 10.0 mi WNW 11.5 mph - N/A   Scattered Clouds
2:35 AM 41.4 °F 35.7 °F 29.7 °F 63% 30.00 in 10.0 mi WNW 9.2 mph - N/A   Scattered Clouds
2:55 AM 44.4 °F 37.9 °F 23.9 °F 44% 30.00 in 10.0 mi NNW 13.8 mph - N/A   Scattered Clouds
3:15 AM 45.5 °F 39.2 °F 21.7 °F 39% 30.00 in 10.0 mi NW 13.8 mph - N/A   Clear
3:35 AM 46.0 °F 40.2 °F 21.2 °F 37% 30.00 in 10.0 mi NNW 12.7 mph - N/A   Clear
3:55 AM 43.9 °F 36.2 °F 23.9 °F 45% 30.01 in 10.0 mi NNW 17.3 mph - N/A   Clear
4:15 AM 43.7 °F 36.3 °F 25.0 °F 48% 30.02 in 10.0 mi NNW 16.1 mph - N/A   Clear
4:35 AM 43.0 °F 35.1 °F 24.8 °F 49% 30.03 in 10.0 mi NNW 17.3 mph - N/A   Clear
4:55 AM 41.7 °F 34.1 °F 23.9 °F 49% 30.03 in 10.0 mi NNW 15.0 mph - N/A   Clear
5:15 AM 41.0 °F 32.8 °F 22.8 °F 48% 30.04 in 10.0 mi North 16.1 mph - N/A   Clear
5:55 AM 41.5 °F 33.2 °F 20.3 °F 43% 30.05 in 10.0 mi North 17.3 mph - N/A   Clear
6:15 AM 41.7 °F 33.4 °F 20.1 °F 42% 30.06 in 10.0 mi NNW 17.3 mph - N/A   Clear
6:35 AM 42.4 °F 34.4 °F 20.3 °F 41% 30.07 in 10.0 mi NNW 17.3 mph - N/A   Clear
6:55 AM 44.4 °F 37.5 °F 20.1 °F 38% 30.08 in 10.0 mi North 15.0 mph - N/A   Clear
7:15 AM 46.0 °F 39.9 °F 21.4 °F 38% 30.09 in 10.0 mi North 13.8 mph - N/A   Clear
7:35 AM 49.3 °F - 21.2 °F 33% 30.09 in 10.0 mi North 11.5 mph - N/A   Clear
7:55 AM 52.0 °F - 21.2 °F 30% 30.11 in 10.0 mi North 11.5 mph - N/A   Clear
8:15 AM 54.0 °F - 21.7 °F 29% 30.11 in 10.0 mi North 15.0 mph 18.4 mph N/A   Clear
8:35 AM 56.5 °F - 22.1 °F 26% 30.12 in 10.0 mi North 15.0 mph - N/A   Clear
8:55 AM 57.6 °F - 22.1 °F 25% 30.14 in 10.0 mi NNE 13.8 mph - N/A   Clear
9:15 AM 59.2 °F - 22.3 °F 24% 30.14 in 10.0 mi NNE 11.5 mph - N/A   Clear
9:35 AM 61.0 °F - 22.3 °F 23% 30.14 in 10.0 mi NE 13.8 mph 18.4 mph N/A   Clear
9:55 AM 62.4 °F - 21.9 °F 21% 30.15 in 10.0 mi NE 13.8 mph - N/A   Clear
10:15 AM 64.4 °F - 19.4 °F 18% 30.15 in 10.0 mi NE 12.7 mph 20.7 mph N/A   Clear
10:35 AM 65.5 °F - 18.1 °F 16% 30.16 in 10.0 mi NE 17.3 mph 21.9 mph N/A   Clear
10:55 AM 66.2 °F - 16.0 °F 14% 30.16 in 10.0 mi ENE 19.6 mph 24.2 mph N/A   Clear
11:15 AM 66.9 °F - 15.6 °F 14% 30.17 in 10.0 mi NNE 15.0 mph 23.0 mph N/A   Clear
11:35 AM 67.5 °F - 17.2 °F 15% 30.17 in 10.0 mi NE 15.0 mph 21.9 mph N/A   Clear
11:55 AM 68.9 °F - 16.5 °F 13% 30.17 in 10.0 mi NE 9.2 mph 23.0 mph N/A   Clear
12:15 PM 69.1 °F - 16.2 °F 13% 30.17 in 10.0 mi ENE 10.4 mph 23.0 mph N/A   Clear
12:35 PM 69.6 °F - 17.8 °F 14% 30.17 in 10.0 mi NE 13.8 mph 25.3 mph N/A   Clear
12:55 PM 69.6 °F - 15.3 °F 12% 30.17 in 10.0 mi North 11.5 mph 19.6 mph N/A   Clear
1:15 PM 69.6 °F - 13.5 °F 12% 30.17 in 10.0 mi ENE 4.6 mph 16.1 mph N/A   Clear
1:35 PM 70.0 °F - 14.7 °F 12% 30.17 in 10.0 mi East 5.8 mph 18.4 mph N/A   Scattered Clouds
1:55 PM 69.6 °F - 14.2 °F 12% 30.17 in 10.0 mi ENE 6.9 mph - N/A   Clear
2:15 PM 71.1 °F - 15.6 °F 12% 30.17 in 10.0 mi NNE 8.1 mph 20.7 mph N/A   Scattered Clouds
2:35 PM 69.6 °F - 15.6 °F 13% 30.17 in 10.0 mi NNE 8.1 mph 17.3 mph N/A   Scattered Clouds
2:55 PM 70.2 °F - 14.7 °F 12% 30.17 in 10.0 mi NNE 8.1 mph 16.1 mph N/A   Clear
3:15 PM 69.1 °F - 16.2 °F 13% 30.17 in 10.0 mi NNE 11.5 mph 23.0 mph N/A   Scattered Clouds
3:35 PM 67.6 °F - 15.3 °F 13% 30.16 in 10.0 mi ENE 6.9 mph - N/A   Scattered Clouds
3:55 PM 70.5 °F - 16.0 °F 12% 30.16 in 10.0 mi NNE 6.9 mph 19.6 mph N/A   Clear
4:15 PM 70.0 °F - 14.9 °F 12% 30.16 in 10.0 mi North 10.4 mph 18.4 mph N/A   Clear
4:35 PM 68.2 °F - 15.8 °F 13% 30.16 in 10.0 mi North 8.1 mph - N/A   Clear
4:55 PM 69.3 °F - 15.3 °F 13% 30.16 in 10.0 mi NE 4.6 mph 17.3 mph N/A   Clear
5:15 PM 69.3 °F - 15.8 °F 13% 30.17 in 10.0 mi North 9.2 mph - N/A   Clear
5:35 PM 67.5 °F - 14.5 °F 13% 30.17 in 10.0 mi East 4.6 mph - N/A   Clear
5:55 PM 68.4 °F - 15.1 °F 13% 30.17 in 10.0 mi ENE 3.5 mph - N/A   Clear
6:15 PM 68.0 °F - 15.6 °F 13% 30.17 in 10.0 mi East 6.9 mph - N/A   Clear
6:35 PM 66.6 °F - 16.0 °F 14% 30.17 in 10.0 mi ESE 5.8 mph - N/A   Clear
6:55 PM 65.3 °F - 18.1 °F 16% 30.17 in 10.0 mi East 5.8 mph - N/A   Clear
7:15 PM 61.5 °F - 21.2 °F 21% 30.17 in 10.0 mi East 5.8 mph - N/A   Clear
7:35 PM 57.2 °F - 21.6 °F 25% 30.17 in 10.0 mi East 6.9 mph - N/A   Clear
7:55 PM 53.8 °F - 22.3 °F 29% 30.17 in 10.0 mi ESE 6.9 mph - N/A   Clear
8:15 PM 53.4 °F - 22.1 °F 30% 30.18 in 10.0 mi East 4.6 mph - N/A   Clear
8:35 PM 53.2 °F - 21.0 °F 28% 30.19 in 10.0 mi East 4.6 mph - N/A   Clear
8:55 PM 53.4 °F - 20.7 °F 28% 30.20 in 10.0 mi East 6.9 mph - N/A   Clear
9:15 PM 51.6 °F - 22.6 °F 32% 30.21 in 10.0 mi East 3.5 mph - N/A   Clear
9:35 PM 51.8 °F - 22.1 °F 31% 30.21 in 10.0 mi East 5.8 mph - N/A   Clear
9:55 PM 48.9 °F - 22.3 °F 35% 30.22 in 10.0 mi East 4.6 mph - N/A   Clear
10:15 PM 50.7 °F - 21.9 °F 32% 30.22 in 10.0 mi East 4.6 mph - N/A   Clear
10:35 PM 48.6 °F - 22.3 °F 36% 30.22 in 10.0 mi East 3.5 mph - N/A   Clear
10:55 PM 48.6 °F - 22.6 °F 36% 30.22 in 10.0 mi East 3.5 mph - N/A   Clear
11:15 PM 48.6 °F - 22.6 °F 36% 30.22 in 10.0 mi East 3.5 mph - N/A   Clear
11:35 PM 48.7 °F - 22.8 °F 36% 30.22 in 10.0 mi Calm Calm - N/A   Clear
11:55 PM 48.6 °F - 23.4 °F 37% 30.22 in 10.0 mi Calm Calm - N/A   Clear